SL-14 DEB, 45307

Orbit data source: Space-Track

SL-14 DEB, 45307 is space debris in LEO originally from a launch on Thu, 15 Aug 1991 UTC launched from the Plesetsk Missile And Space Complex (PKMTR). Debris objects in space refer to the collection of defunct objects orbiting the Earth. Examples of debris include non-operational satellites, rocket bodies, and fragments generated from explosions, collisions, or faulty payload assembly.

Loading next visibility...
Identifier
45307, 1991-056AV
Orbit
LEO
Country
Flag of CISCIS
Related business
Manufacturer
Unknown
Mission
Spacecraft
Bus & Motor
Unknown
Mass
Unknown
Launch date (UTC)
1991-08-15 (35 years ago)
Launch vehicle
Unknown
Launch site
Plesetsk Missile And Space Complex (PKMTR)
Object type
Payload
Rocket body
Debris
Shape & HBR
Unknown shape, 0.1 m
Radar Cross Section
Medium (>0.1 m² and <1 m²)

Expand to show TLE details & history
Last TLE update: 10 hours ago

TLE from 10 hours ago
0 SL-14 DEB
1 45307U 91056AV  26237.76213715  .00002310  00000-0  58798-2 0  9997
2 45307  82.6011 156.2703 0255550 340.9566  18.2125 13.07240041307571
Epoch: 2026-08-25T18:17Z
TLE epoch observation values (Epoch: 2026-08-25T18:17:28.649Z)
Latitude
-0.00009°
Longitude
-92.12392°
Altitude
1,052.344 km
Speed
7.414 km/s
True Right ascension
10h 25m 04s
True Declination
0° 00' 00"
Sunlit
Object was in daylight at epoch
Visualization orbit readout
Latitude
Unknown
Longitude
Unknown
Altitude
Unknown
Speed
Unknown
Apparent Right ascension
Unknown
Apparent Declination
Unknown
Sunlit
N/A
Visualization observer readout
Local Sidereal Time
19:07:18
Azimuth
Unknown
Elevation
Unknown
Doppler factor
Unknown
Orbital elements
Apogee altitude
1,425.562 km
Perigee altitude
1,036.654 km
Semi-major axis
7,609.245 km
Eccentricity
0.02556
Inclination
82.6011°
RAAN
156.2703°
Arg. of periapsis
340.9566°
True anomaly
19.15631°
Mean anomaly
18.2125°
Eccentric anomaly
18.68149°
Mean motion
3.26987 °/min
Orbital period
110.1 mins
BSTAR
0.0058798
Loading maneuver chart data...
Computing Atmospheric mass density...
Loading historical data...
Loading historical data...
Loading historical data...
Loading historical data...
Loading historical data...
Loading historical data...
Loading historical data...

Documentation

Showing up to 5 results
|